Home > Weather > Riffa > Past weeks

Flag for Bahrain Weather for the Past 2 Weeks in Riffa, Bahrain

Now
63 °F

Passing clouds.


Feels Like: 63 °F
Forecast: 63 / 69 °F
Wind: 8 mph from Southeast

Location: Bahrain International Airport

Current Time: Feb 7, 2016 at 8:47:32 AM

Latest Report: Feb 7, 2016 at 8:00 AM


Visibility: N/A

Pressure: 30.04 "Hg

Humidity: 68%

Dew point: 52 °F

Location of RiffaLocation

Historic Weather in Riffa — Graph

°F

Riffa Temperature Yesterday

Maximum temperature yesterday: 72 °F (at 3:00 PM)
Minimum temperature yesterday: 57 °F (at 6:00 AM)
Average temperature yesterday: 63 °F

High & Low Weather Summary for the Past Weeks

 TemperatureHumidityPressure
High77 °F (Jan 24, 1:00 PM)100% (Feb 6, 6:00 AM)30.36 "Hg (Feb 6, 6:00 AM)
Low50 °F (Jan 29, 3:00 AM)27% (Feb 6, 3:00 PM)29.92 "Hg (Jan 25, 12:00 AM)
Average62 °F65%30.14 "Hg
* Reported Jan 23 7:00 AM — Feb 7 7:00 AM, Riffa, Weather by CustomWeather, © 2016

Note: Actual official high and low records may vary slightly from our data, if they occured in-between our weather recording intervals... More about our weather records

Advertising

Riffa Weather History for the Previous 24 Hours

 ConditionsComfort  
Time TempWeatherWind HumidityBarometerVisibility
7:00 AM
Sun, Feb 7
61 °FSunny.10 mph72%30.01 "Hg10 mi
6:00 AM61 °FClear.8 mph77%30.01 "Hg10 mi
5:00 AM61 °FClear.9 mph77%29.98 "Hg10 mi
4:00 AM61 °FClear.7 mph72%29.98 "Hg10 mi
3:00 AM63 °FPassing clouds.6 mph59%29.98 "HgN/A
2:00 AM61 °FClear.8 mph68%30.01 "Hg10 mi
1:00 AM61 °FClear.9 mph72%30.01 "Hg10 mi
12:00 AM61 °FClear.6 mph63%30.01 "Hg10 mi
11:00 PM
Sat, Feb 6
63 °FClear.7 mph59%30.04 "Hg10 mi
10:00 PM63 °FClear.6 mph68%30.04 "Hg10 mi
9:00 PM63 °FClear.5 mph73%30.04 "Hg10 mi
8:00 PM63 °FClear.3 mph73%30.04 "Hg10 mi
7:00 PM63 °FClear.6 mph73%30.04 "Hg10 mi
6:00 PM64 °FClear.7 mph64%30.04 "Hg10 mi
5:00 PM64 °FSunny.8 mph64%30.04 "Hg10 mi
4:00 PM66 °FSunny.8 mph52%30.04 "Hg10 mi
3:00 PM72 °FSunny.3 mph27%30.04 "Hg10 mi
2:00 PM70 °FSunny.8 mph33%30.07 "Hg10 mi
1:00 PM70 °FSunny.10 mph31%30.09 "Hg10 mi
12:00 PM68 °FPassing clouds.7 mph35%30.12 "HgN/A
11:00 AM64 °FSunny.7 mph68%30.15 "Hg4 mi
10:00 AM63 °FSunny.8 mph77%30.18 "Hg4 mi
9:00 AM61 °FSunny.9 mph83%30.18 "Hg4 mi
8:00 AM61 °FSunny.8 mph88%30.15 "Hg4 mi
Weather by CustomWeather, © 2016

See weather overviewHow to use our weather pages